Back to catalog

BEIDOU 14

AliveNavigationMEO
NORAD 38774·PAYLOAD·🇨🇳 China

Launched Sep 18, 2012 from Xichang Satellite Launch Center

Loading…

Next Passes (next 24 hours)

TLE

FreshSource: Space-Track

Epoch: Sep 14, 2026, 01:57 UTC

1 38774U 12050A   26257.08133884 -.00000048  00000-0  00000-0 0  9997
2 38774  56.5213  59.9415 0042112 263.4110  96.1213  1.86251621 79508

Track BEIDOU 14 in real time with AllMySat

Download on the App Store